Change the Weather History Date:

Friday, September 27, 2013

  Actual Average Record
Temperature  
Mean Temperature 58 °F -  
Max Temperature 65 °F 59 °F 70 °F (2014)
Min Temperature 50 °F 47 °F 44 °F (2007)
Degree Days  
Heating Degree Days 8    
Growing Degree Days 8 (Base 50)    
Moisture  
Dew Point 50 °F    
Average Humidity 78    
Maximum Humidity 94    
Minimum Humidity 46    
Precipitation  
Precipitation 0.00 in - - ()
Sea Level Pressure  
Sea Level Pressure 30.01 in    
Wind  
Wind Speed 6 mph ()    
Max Wind Speed 15 mph    
Max Gust Speed -    
Visibility 9.2 miles    
Events      
Averages and records for this station are not official NWS values.
T = Trace of Precipitation, MM = Missing Value Source: Averaged Metar Reports

Daily Weather History Graph

Daily Weather History Graph

Search for Another Location

Airport or City:

Trip Planner

Search our weather history database for the weather conditions in past years. The results will help you decide how hot, cold, wet, or windy it might be!

Date:

Astronomy

Sep. 27, 2013 Rise Set
Actual Time 6:56 AM BST 6:48 PM BST
Civil Twilight 6:22 AM BST 7:21 PM BST
Nautical Twilight 5:43 AM BST 8:00 PM BST
Astronomical Twilight 5:03 AM BST 8:40 PM BST
Moon 11:55 PM BST 2:53 PM BST
Length of Visible Light 12h 58m
Length of Day
11h 52m
Waning Gibbous, 47% of the Moon is Illuminated
Sep 27
Waning Gibbous
Oct 5
New
Oct 12
First Quarter
Oct 19
Full
Oct 27
Last Quarter

Hourly Weather History & Observations

Time (BST) Temp. Dew Point Humidity Pressure Visibility Wind Dir Wind Speed Gust Speed Precip Events Conditions
12:20 AM 53.6 °F 51.8 °F 94% 30.06 in - ESE 2.3 mph - N/A   Clear
12:50 AM 55 °F 51 °F 83% 30.06 in 19 mi ENE 4.6 mph - -  
12:50 AM 53.6 °F 50.0 °F 88% 30.06 in - ENE 4.6 mph - N/A   Clear
1:20 AM 51.8 °F 50.0 °F 94% 30.06 in - ENE 3.5 mph - N/A   Clear
1:50 AM 53.6 °F 50.0 °F 88% 30.06 in - ENE 3.5 mph - N/A   Clear
2:20 AM 51.8 °F 50.0 °F 94% 30.06 in 6.2 mi NE 3.5 mph - N/A   Unknown
2:50 AM 51.8 °F 50.0 °F 94% 30.06 in 6.2 mi NE 4.6 mph - N/A   Unknown
3:20 AM 51.8 °F 48.2 °F 88% 30.06 in 6.2 mi Variable 2.3 mph - N/A   Unknown
3:50 AM 51 °F 48 °F 87% 30.06 in 16 mi North 2.3 mph - -  
3:50 AM 51.8 °F 48.2 °F 88% 30.06 in - Variable 2.3 mph - N/A   Clear
4:20 AM 51.8 °F 48.2 °F 88% 30.04 in - NE 4.6 mph - N/A   Clear
4:50 AM 51.8 °F 48.2 °F 88% 30.04 in - NE 5.8 mph - N/A   Clear
5:20 AM 51.8 °F 48.2 °F 88% 30.04 in - NE 3.5 mph - N/A   Clear
5:50 AM 50.0 °F 46.4 °F 87% 30.04 in - NE 2.3 mph - N/A   Clear
6:20 AM 50.0 °F 48.2 °F 94% 30.04 in - NE 4.6 mph - N/A   Clear
6:50 AM 51 °F 48 °F 84% 30.04 in 15 mi NE 4.6 mph - -  
6:50 AM 50.0 °F 46.4 °F 87% 30.04 in - ENE 4.6 mph - N/A   Clear
7:20 AM 51.8 °F 48.2 °F 88% 30.04 in - NE 4.6 mph - N/A   Clear
7:50 AM 51.8 °F 50.0 °F 94% 30.04 in - NE 4.6 mph - N/A   Clear
8:20 AM 53.6 °F 50.0 °F 88% 30.04 in - ENE 5.8 mph - N/A   Clear
8:50 AM 55.4 °F 50.0 °F 82% 30.04 in - East 8.1 mph - N/A   Clear
9:20 AM 57.2 °F 50.0 °F 77% 30.04 in - East 10.4 mph - N/A   Clear
9:50 AM 58 °F 50 °F 68% 30.04 in 12 mi East 12.7 mph - -  
9:50 AM 57.2 °F 50.0 °F 77% 30.04 in 6.2 mi East 12.7 mph - N/A   Partly Cloudy
10:20 AM 59.0 °F 51.8 °F 77% 30.04 in 6.2 mi East 13.8 mph - N/A   Partly Cloudy
10:50 AM 59.0 °F 51.8 °F 77% 30.04 in 6.2 mi East 15.0 mph - N/A   Partly Cloudy
11:20 AM 60.8 °F 51.8 °F 72% 30.04 in - East 12.7 mph - N/A   Clear
11:50 AM 60.8 °F 50.0 °F 68% 30.04 in - East 11.5 mph - N/A   Clear
12:20 PM 60.8 °F 50.0 °F 68% 30.01 in - East 12.7 mph - N/A   Clear
12:50 PM 63 °F 49 °F 49% 30.02 in 16 mi East 11.5 mph - -  
12:50 PM 64.4 °F 50.0 °F 59% 30.01 in - East 12.7 mph - N/A   Clear
1:20 PM 64.4 °F 50.0 °F 59% 30.01 in - East 12.7 mph - N/A   Clear
1:50 PM 64.4 °F 50.0 °F 59% 30.01 in - East 11.5 mph - N/A   Clear
2:20 PM 64.4 °F 50.0 °F 59% 29.98 in - East 12.7 mph - N/A   Clear
2:50 PM 62.6 °F 50.0 °F 63% 29.98 in - East 10.4 mph - N/A   Clear
3:20 PM 64.4 °F 50.0 °F 59% 29.98 in - East 11.5 mph - N/A   Clear
3:50 PM 64 °F 48 °F 46% 29.97 in 25 mi East 13.8 mph - -  
3:50 PM 64.4 °F 50.0 °F 59% 29.98 in - East 15.0 mph - N/A   Clear
4:20 PM 62.6 °F 50.0 °F 63% 29.95 in - East 13.8 mph - N/A   Clear
4:50 PM 60.8 °F 50.0 °F 68% 29.95 in - East 12.7 mph - N/A   Clear
5:20 PM 60.8 °F 50.0 °F 68% 29.95 in - East 11.5 mph - N/A   Clear
5:50 PM 59.0 °F 50.0 °F 72% 29.95 in - East 12.7 mph - N/A   Clear
6:20 PM 59.0 °F 50.0 °F 72% 29.95 in 6.2 mi East 11.5 mph - N/A   Unknown
6:50 PM 57 °F 49 °F 66% 29.96 in 16 mi East 12.7 mph - -  
6:50 PM 57.2 °F 50.0 °F 77% 29.95 in - East 11.5 mph - N/A   Clear
7:20 PM 57.2 °F 50.0 °F 77% 29.98 in - East 11.5 mph - N/A   Clear
7:50 PM 57.2 °F 50.0 °F 77% 29.98 in - East 10.4 mph - N/A   Clear
8:20 PM 55.4 °F 50.0 °F 82% 29.95 in - East 11.5 mph - N/A   Clear
8:50 PM 55.4 °F 50.0 °F 82% 29.95 in - ENE 9.2 mph - N/A   Clear
9:20 PM 55.4 °F 50.0 °F 82% 29.95 in - East 8.1 mph - N/A   Clear
9:50 PM 56 °F 50 °F 73% 29.95 in 8 mi ENE 6.9 mph - -  
9:50 PM 55.4 °F 50.0 °F 82% 29.95 in - ENE 6.9 mph - N/A   Clear
10:20 PM 55.4 °F 50.0 °F 82% 29.95 in 5.6 mi ENE 5.8 mph - N/A   Unknown
10:50 PM 55.4 °F 51.8 °F 88% 29.95 in 5.6 mi ENE 5.8 mph - N/A   Unknown
11:20 PM 53.6 °F 50.0 °F 88% 29.92 in 5.6 mi ENE 3.5 mph - N/A   Unknown
11:50 PM 53.6 °F 50.0 °F 88% 29.95 in 3.7 mi ENE 4.6 mph - N/A   Unknown